STARLINK-5352, 56426

Orbit data source: Space-Track

STARLINK-5352, 56426 is a payload satellite owned by SpaceX/Seattle (US) in LEO that was launched on Thu, 04 May 2023 UTC via an FALCON 9 launch vehicle from the Air Force Eastern Test Range (AFETR). Payload-class satellites include a variety of spacecraft equipped with specific instruments for various scientific and technological missions. These include communications satellites like Starlink; space stations such as the ISS; scientific satellites like the Hubble; Earth observation satellites from companies like Planet Labs, Umbra, and HawkEye 360; GPS; miniature CubeSats for education and research; and military/defense satellites.

Loading next visibility...
Identifier
56426, 2023-061BE
Orbit
LEO
Country
Flag of USUS
Related business
Manufacturer
SpaceX/Seattle
Mission
Operational Commercial Communications
Bus & Motor
STARLINK, Unknown motor
Mass
305 kg wet, ~290 kg dry
Launch date (UTC)
2023-05-04 (3 years ago)
Launch vehicle
FALCON 9
Launch site
Air Force Eastern Test Range (AFETR)
Object type
Payload
Rocket body
Debris
Shape & HBR
Box + 1 Pan, 10.1 m
Radar Cross Section
11.087 m², Large (>1 m²)

Expand to show TLE details & history
Last TLE update: 2 days ago

TLE from 2 days ago
0 STARLINK-5352
1 56426U 23061BE  26171.46313773  .00000311  00000-0  20835-4 0  9993
2 56426  43.0027 319.4676 0001558 272.8319  87.2354 15.27578799172670
Epoch: 2026-06-20T11:06Z
TLE epoch observation values (Epoch: 2026-06-20T11:06:55.099Z)
Latitude
-0.00006°
Longitude
-115.93945°
Altitude
482.777 km
Speed
7.626 km/s
True Right ascension
21h 17m 52s
True Declination
0° 00' 00"
Sunlit
Object was in full shadow at epoch
Visualization orbit readout
Latitude
Unknown
Longitude
Unknown
Altitude
Unknown
Speed
Unknown
Apparent Right ascension
Unknown
Apparent Declination
Unknown
Sunlit
N/A
Visualization observer readout
Local Sidereal Time
21:33:08
Azimuth
Unknown
Elevation
Unknown
Doppler factor
Unknown
Orbital elements
Apogee altitude
486.067 km
Perigee altitude
483.928 km
Semi-major axis
6,863.134 km
Eccentricity
0.00016
Inclination
43.0027°
RAAN
319.4676°
Arg. of periapsis
272.8319°
True anomaly
87.25323°
Mean anomaly
87.2354°
Eccentric anomaly
87.24432°
Mean motion
3.81733 °/min
Orbital period
94.31 mins
BSTAR
0.000020835
Loading maneuver chart data...
Computing Atmospheric mass density...
Loading historical data...
Loading historical data...
Loading historical data...
Loading historical data...
Loading historical data...
Loading historical data...
Loading historical data...

Documentation

Showing up to 5 results
|